Regional Weather Roundup
Issued by NWS

Home | Current Version | Previous Version | Text Only | Print | Product List | Glossary On
Versions: 1 2 3 4 5 6 7 8 9 10 11 12 13 14 15 16 17 18 19 20 21 22 23 24 25 26 27 28 29 30 31 32 33 34 35 36 37 38 39 40 41 42 43 44 45 46 47 48 49 50
694
ASUS43 KLMK 262102
RWRKY
KENTUCKY REGIONAL WEATHER ROUNDUP
NATIONAL WEATHER SERVICE LOUISVILLE KY
500 PM EDT FRI MAY 26 2017

NOTE "FAIR" INDICATES FEW OR NO CLOUDS BELOW 12,000 FEET
WITH NO SIGNIFICANT WEATHER AND/OR OBSTRUCTIONS TO VISIBILITY.

KYZ001>023-026-027-061>063-070>075-262200-
WESTERN AND SOUTH CENTRAL KENTUCKY

CITY           SKY/WX    TMP DP  RH WIND       PRES   REMARKS
PADUCAH        SUNNY     85  60  42 SW22G37   29.78F
HENDERSON      MOSUNNY   84  61  45 S14G20    29.80F
OWENSBORO      PTSUNNY   85  61  44 SW16      29.81F
HOPKINSVILLE   PTSUNNY   83  59  43 S15G22    29.82F
BOWLING GREEN  SUNNY     84  64  50 S14G23    29.84F
GLASGOW        NOT AVBL
$$

KYZ024-025-028>034-038-045-046-053-262200-
NORTH CENTRAL KENTUCKY

CITY           SKY/WX    TMP DP  RH WIND       PRES   REMARKS
LOUISVILLE/SDF MOSUNNY   81  64  56 S12       29.84F
LOUISVILLE/LOU PTSUNNY   80  64  58 S7        29.85F
FORT KNOX      SUNNY     80  65  59 S12       29.83F
$$

KYZ035>037-039>044-047>052-055>060-089>105-262200-
NORTHEAST KENTUCKY

CITY           SKY/WX    TMP DP  RH WIND       PRES   REMARKS
LEXINGTON      CLOUDY    76  59  55 S9        29.91S
COVINGTON      MOSUNNY   78  57  48 SW12      29.87F
FRANKFORT      CLOUDY    78  59  51 S8        29.88S
$$

KYZ054-064>069-076>088-106>120-262200-
SOUTHEAST KENTUCKY

CITY           SKY/WX    TMP DP  RH WIND       PRES   REMARKS
JACKSON        SUNNY     76  57  51 VRB3      29.94S
LONDON         MOSUNNY   79  56  45 SW10      29.93F
SOMERSET       MOSUNNY   77  59  53 W8        29.93R
MIDDLESBORO    MOSUNNY   78  58  49 S7        29.94F
MONTICELLO     PTCLDY    79  64  60 VRB5      29.93S
$$





USA.gov is the U.S. government's official web portal to all federal, state and local government web resources and services.